Location: Bieujac
(44.5398°N, 0.1549°W)
Time: 07:35:36
(UTC+00:00)

Cosmos 1606 - Pass Details

Date: 17 November 2019
Orbit: 504 x 528 km, 82.5° (Epoch: 08 December)

Event Time Altitude Azimuth Distance (km) Brightness Sun altitude
Rises 05:32:10 0° 356° (N) 2,621 6.1 -15.5°
Reaches altitude 10° 05:34:21 10° 3° (N) 1,733 5.3 -15.1°
Maximum altitude 05:38:02 47° 78° (ENE) 681 3.7 -14.4°
Drops below altitude 10° 05:41:42 10° 154° (SSE) 1,730 5.9 -13.8°
Sets 05:43:53 0° 160° (SSE) 2,615 6.8 -13.4°
